Terminal Aerodrome Forecast
Issued by NWS

Home | Current Version | Previous Version | Text Only | Print | Product List | Glossary Off
Versions: 1 2 3 4 5 6 7 8 9 10 11 12 13 14 15 16 17 18 19 20 21 22 23 24 25 26 27 28 29 30 31 32 33 34 35 36 37 38 39 40 41 42 43 44 45 46 47 48 49 50

000
FTUS43 KLOT 212332
TAFGYY
TAF
KGYY 212332Z 2200/2224 28012G18KT P6SM SKC
     FM220100 25008KT P6SM BKN080
     FM220700 02012KT P6SM SCT080
     FM221400 03011KT P6SM SKC=

USA.gov is the U.S. government's official web portal to all federal, state and local government web resources and services.